Location: Lone Wolf Observatory
(41.0360°N, 89.2260°W)
Time: 08:49:32
(UTC-05:00)

Amateur Radio Satellites - All Passes

Search period start: 22 October 2014 08:19
Search period end: 23 October 2014 08:19
Location: Lone Wolf Observatory, 41.0360°N, 89.2260°W

Satellite Date Start Highest point End Downlink Frequencies (MHz)
Time Altitude Azimuth
STRAND 1 22 Oct 08:37:49 08:39:14 11° 271° (W) 08:40:40 ?
JAS-2 22 Oct 08:42:22 08:46:55 17° 304° (NW) 08:51:33 435.800 - 435.900 CW/SSB, 435.910 FM
Saudisat 1A 22 Oct 08:53:35 08:57:57 70° 304° (NW) 09:02:21 436.775 MHz
HO-68 22 Oct 09:20:41 09:27:19 38° 98° (E) 09:33:54 435.675 MHz FM
RS-15 22 Oct 09:38:07 09:48:04 39° 253° (WSW) 09:58:26 29.354 - 29.394 USB, Beacon 29.352 USB
PANSAT 22 Oct 09:41:23 09:42:33 11° 172° (S) 09:43:42 not established
MaSat-1 22 Oct 09:54:08 09:56:43 41° 61° (ENE) 09:59:05 437.345 MHz
Oscar 11 22 Oct 09:56:30 09:59:57 23° 95° (E) 10:03:23 145.825 FM, Beacon 2401.500 USB
Saudisat 1A 22 Oct 10:36:52 10:38:20 11° 324° (NW) 10:39:48 436.775 MHz
ZACube-1 22 Oct 10:37:33 10:41:12 27° 95° (E) 10:44:46 437.345 MHz
UKube-1 22 Oct 10:47:44 10:52:08 88° 284° (WNW) 10:56:29 145.840 MHz, 145.915 MHz
HO-68 22 Oct 11:08:22 11:15:01 42° 295° (WNW) 11:21:38 435.675 MHz FM
KITSAT 1 22 Oct 11:11:48 11:15:38 14° 99° (E) 11:19:28 435.175 FM
PANSAT 22 Oct 11:20:27 11:21:55 12° 185° (S) 11:23:24 not established
FUNcube-1 22 Oct 11:22:33 11:26:51 88° 103° (ESE) 11:31:03 145.950 - 145.970 MHz USB
Oscar 11 22 Oct 11:32:22 11:36:08 30° 290° (WNW) 11:39:53 145.825 FM, Beacon 2401.500 USB
ZACube-1 22 Oct 12:13:59 12:17:31 25° 292° (WNW) 12:20:58 437.345 MHz
Oscar 16 22 Oct 12:16:21 12:19:19 16° 61° (ENE) 12:22:16 437.025 USB, Beacon 2401.1428
JAS-1B 22 Oct 12:35:15 12:39:32 21° 62° (ENE) 12:43:39 435.800 - 435.900 CW/SSB
AO-Echo 22 Oct 12:35:40 12:36:38 11° 58° (ENE) 12:37:36 ?
Sapphire 22 Oct 13:00:53 13:05:40 30° 50° (NE) 13:10:26 437.095 MHz 1200 baud AX-25 AFSK
KITSAT 1 22 Oct 13:01:38 13:09:42 78° 117° (ESE) 13:17:47 435.175 FM
Oscar 19 22 Oct 13:07:57 13:12:49 44° 70° (ENE) 13:17:41 437.125 CW, 437.150 USB
AO-27 22 Oct 13:19:42 13:23:51 25° 65° (ENE) 13:28:02 436.795 MHz FM
PCSat 22 Oct 13:23:30 13:28:46 48° 55° (NE) 13:33:59 145.825 MHz
ISS 22 Oct 13:47:05 13:50:20 53° 140° (SE) 13:53:36 145.800 FM
Oscar 16 22 Oct 13:52:55 13:58:04 70° 258° (WSW) 14:03:14 437.025 USB, Beacon 2401.1428
Oscar 10/S400 22 Oct 13:53:06 14:10:49 37° 153° (SSE) 14:32:38 145.825 - 145.975 CW/USB, Beacon 145.810 USB
SO-50 22 Oct 13:54:01 13:58:30 83° 121° (ESE) 14:03:08 436.795 FM
Uribyol 2 22 Oct 14:07:33 14:12:44 70° 74° (ENE) 14:17:57 436.500 FM
AO-Echo 22 Oct 14:09:41 14:14:31 85° 75° (ENE) 14:19:34 ?
ITAMSAT 1 22 Oct 14:12:53 14:18:04 74° 74° (ENE) 14:23:18 435.822 SSB
Gurwin Techsat 1B 22 Oct 14:17:20 14:22:18 42° 70° (ENE) 14:27:17 435.225 FM
JAS-1B 22 Oct 14:23:55 14:29:54 53° 259° (W) 14:35:28 435.800 - 435.900 CW/SSB
TMSAT-1 22 Oct 14:30:21 14:35:17 41° 69° (ENE) 14:40:15 436.925 FM
AO-7 22 Oct 14:34:53 14:41:00 24° 53° (NE) 14:47:07 29.400 - 29.500 MHz
Sapphire 22 Oct 14:44:07 14:49:11 41° 249° (WSW) 14:54:13 437.095 MHz 1200 baud AX-25 AFSK
Oscar 19 22 Oct 14:48:22 14:52:20 22° 266° (W) 14:56:19 437.125 CW, 437.150 USB
AO-27 22 Oct 14:58:12 15:03:07 42° 261° (W) 15:08:04 436.795 MHz FM
KITSAT 1 22 Oct 14:59:06 15:05:55 29° 319° (NW) 15:12:45 435.175 FM
PCSat 22 Oct 15:07:35 15:11:51 24° 253° (WSW) 15:16:06 145.825 MHz
ISS 22 Oct 15:24:22 15:27:13 25° 337° (NNW) 15:30:04 145.800 FM
UOSAT-12 22 Oct 15:31:54 15:36:30 74° 120° (ESE) 15:41:13 437.025 FM, 437.400 FM
SO-50 22 Oct 15:36:56 15:39:41 16° 321° (NW) 15:42:30 436.795 FM
Saudisat 1A 22 Oct 15:42:17 15:44:32 14° 39° (NE) 15:46:47 436.775 MHz
Uribyol 2 22 Oct 15:50:04 15:52:42 14° 270° (W) 15:55:22 436.500 FM
Uosat F 22 Oct 15:52:36 15:57:11 37° 69° (ENE) 16:01:47 435.120 FM
ITAMSAT 1 22 Oct 15:55:43 15:58:06 13° 270° (W) 16:00:29 435.822 SSB
Gurwin Techsat 1B 22 Oct 15:58:10 16:02:24 24° 266° (W) 16:06:40 435.225 FM
TMSAT-1 22 Oct 16:11:03 16:15:20 25° 266° (W) 16:19:39 436.925 FM
AO-7 22 Oct 16:24:34 16:32:51 83° 253° (WSW) 16:41:12 29.400 - 29.500 MHz
KITSAT 1 22 Oct 17:02:09 17:04:38 12° 348° (NNW) 17:07:08 435.175 FM
ISS 22 Oct 17:03:02 17:04:48 14° 357° (N) 17:06:33 145.800 FM
JAS-2 22 Oct 17:07:40 17:13:12 47° 68° (ENE) 17:19:28 435.800 - 435.900 CW/SSB, 435.910 FM
Hamsat 22 Oct 17:09:21 17:12:46 24° 69° (ENE) 17:16:10 145.90 MHz
UOSAT-12 22 Oct 17:14:03 17:17:11 18° 320° (NW) 17:20:22 437.025 FM, 437.400 FM
Saudisat 1A 22 Oct 17:20:19 17:24:46 88° 59° (ENE) 17:29:11 436.775 MHz
OPAL 22 Oct 17:25:33 17:29:31 24° 97° (E) 17:33:27 ?
Uosat F 22 Oct 17:31:53 17:36:01 26° 265° (W) 17:40:11 435.120 FM
AO-7 22 Oct 18:22:15 18:26:46 16° 271° (W) 18:31:20 29.400 - 29.500 MHz
SO-67 22 Oct 18:33:16 18:36:00 22° 70° (ENE) 18:38:45 435.3500 MHz FM
ISS 22 Oct 18:39:57 18:42:28 20° 18° (NNE) 18:45:00 145.800 FM
Hamsat 22 Oct 18:44:59 18:48:36 27° 264° (W) 18:52:13 145.90 MHz
AO-40 22 Oct 18:52:16 01:02:38 45° 182° (S) 04:59:24 Beacon 2401.320
JAS-2 22 Oct 18:53:48 18:58:36 26° 269° (W) 19:03:54 435.800 - 435.900 CW/SSB, 435.910 FM
KITSAT 1 22 Oct 19:00:49 19:04:31 14° 20° (NNE) 19:08:13 435.175 FM
OPAL 22 Oct 19:03:54 19:08:31 39° 293° (WNW) 19:13:05 ?
STRAND 1 22 Oct 19:05:33 19:09:59 28° 96° (E) 19:14:22 ?
HO-68 22 Oct 19:49:43 19:55:41 30° 60° (ENE) 20:01:40 435.675 MHz FM
SO-67 22 Oct 20:06:25 20:08:56 19° 266° (W) 20:11:27 435.3500 MHz FM
ISS 22 Oct 20:16:12 20:19:34 87° 34° (NE) 20:22:54 145.800 FM
STRAND 1 22 Oct 20:44:32 20:49:11 35° 292° (WNW) 20:53:47 ?
SO-50 22 Oct 20:46:44 20:49:03 13° 36° (NE) 20:51:22 436.795 FM
Oscar 11 22 Oct 20:51:57 20:55:01 19° 66° (ENE) 20:58:05 145.825 FM, Beacon 2401.500 USB
KITSAT 1 22 Oct 20:55:13 21:02:40 38° 47° (NE) 21:10:04 435.175 FM
ZACube-1 22 Oct 21:33:51 21:37:32 24° 68° (ENE) 21:41:12 437.345 MHz
HO-68 22 Oct 21:35:59 21:42:58 56° 258° (WSW) 21:50:02 435.675 MHz FM
UKube-1 22 Oct 21:42:47 21:47:07 79° 75° (ENE) 21:51:30 145.840 MHz, 145.915 MHz
RS-15 22 Oct 21:49:38 21:59:21 38° 107° (ESE) 22:08:58 29.354 - 29.394 USB, Beacon 29.352 USB
ISS 22 Oct 21:55:06 21:55:46 11° 232° (SW) 21:56:26 145.800 FM
FUNcube-1 22 Oct 22:18:07 22:22:41 70° 75° (ENE) 22:27:13 145.950 - 145.970 MHz USB
UOSAT-12 22 Oct 22:23:42 22:25:16 11° 34° (NE) 22:26:49 437.025 FM, 437.400 FM
SO-50 22 Oct 22:25:37 22:30:28 72° 56° (NE) 22:35:20 436.795 FM
Oscar 11 22 Oct 22:26:52 22:30:55 38° 262° (W) 22:34:59 145.825 FM, Beacon 2401.500 USB
KITSAT 1 22 Oct 22:50:32 22:58:20 54° 247° (WSW) 23:06:05 435.175 FM
ZACube-1 22 Oct 23:09:36 23:13:46 33° 263° (W) 23:17:54 437.345 MHz
MaSat-1 22 Oct 23:31:44 23:34:37 18° 107° (ESE) 23:37:22 437.345 MHz
FUNcube-1 22 Oct 23:58:03 23:59:29 11° 271° (W) 00:00:56 145.950 - 145.970 MHz USB
RS-15 23 Oct 00:00:16 00:11:06 62° 309° (NW) 00:21:58 29.354 - 29.394 USB, Beacon 29.352 USB
UOSAT-12 23 Oct 00:01:43 00:06:24 61° 54° (NE) 00:11:00 437.025 FM, 437.400 FM
SO-50 23 Oct 00:07:57 00:10:27 14° 252° (WSW) 00:12:58 436.795 FM
MaSat-1 23 Oct 01:06:13 01:10:08 38° 300° (WNW) 01:13:42 437.345 MHz
Oscar 19 23 Oct 01:21:00 01:23:56 15° 91° (E) 01:26:51 437.125 CW, 437.150 USB
UOSAT-12 23 Oct 01:43:16 01:46:02 16° 251° (WSW) 01:48:46 437.025 FM, 437.400 FM
Oscar 16 23 Oct 02:04:55 02:09:46 42° 98° (E) 02:14:35 437.025 USB, Beacon 2401.1428
JAS-1B 23 Oct 02:05:52 02:12:07 41° 99° (E) 02:19:25 435.800 - 435.900 CW/SSB
AO-Echo 23 Oct 02:17:12 02:21:49 30° 95° (E) 02:26:25 ?
RS-15 23 Oct 02:17:54 02:26:18 24° 339° (NNW) 02:34:49 29.354 - 29.394 USB, Beacon 29.352 USB
Uribyol 2 23 Oct 02:21:06 02:25:22 25° 95° (E) 02:29:35 436.500 FM
ITAMSAT 1 23 Oct 02:26:30 02:30:53 27° 95° (E) 02:35:13 435.822 SSB
Gurwin Techsat 1B 23 Oct 02:34:43 02:38:05 17° 91° (E) 02:41:26 435.225 FM
TMSAT-1 23 Oct 02:47:25 02:50:41 16° 91° (E) 02:53:55 436.925 FM
Oscar 19 23 Oct 02:58:38 03:03:41 62° 287° (WNW) 03:08:43 437.125 CW, 437.150 USB
AO-27 23 Oct 03:10:58 03:16:13 71° 103° (ESE) 03:21:25 436.795 MHz FM
Sapphire 23 Oct 03:43:13 03:47:37 26° 108° (ESE) 03:52:03 437.095 MHz 1200 baud AX-25 AFSK
Oscar 16 23 Oct 03:44:49 03:48:51 24° 295° (WNW) 03:52:53 437.025 USB, Beacon 2401.1428
AO-Echo 23 Oct 03:55:46 04:00:34 35° 292° (WNW) 04:05:21 ?
JAS-1B 23 Oct 03:56:48 04:02:40 37° 292° (WNW) 04:09:29 435.800 - 435.900 CW/SSB
Uribyol 2 23 Oct 04:00:06 04:04:56 40° 291° (WNW) 04:09:44 436.500 FM
Uosat F 23 Oct 04:03:03 04:04:14 11° 89° (E) 04:05:24 435.120 FM
PCSat 23 Oct 04:05:08 04:10:14 44° 112° (ESE) 04:15:22 145.825 MHz
ITAMSAT 1 23 Oct 04:05:38 04:10:26 38° 291° (WNW) 04:15:12 435.822 SSB
Gurwin Techsat 1B 23 Oct 04:13:12 04:18:27 60° 288° (WNW) 04:23:39 435.225 FM
TMSAT-1 23 Oct 04:25:46 04:31:01 62° 287° (WNW) 04:36:13 436.925 FM
AO-7 23 Oct 04:26:43 04:34:05 34° 97° (E) 04:41:25 29.400 - 29.500 MHz
RS-15 23 Oct 04:36:00 04:44:05 22° 16° (NNE) 04:52:19 29.354 - 29.394 USB, Beacon 29.352 USB
OPAL 23 Oct 04:39:55 04:44:47 44° 68° (ENE) 04:49:37 ?
AO-27 23 Oct 04:52:06 04:55:07 16° 300° (WNW) 04:58:07 436.795 MHz FM
Sapphire 23 Oct 05:25:37 05:30:47 44° 305° (NW) 05:35:59 437.095 MHz 1200 baud AX-25 AFSK
Uosat F 23 Oct 05:38:32 05:43:37 83° 285° (WNW) 05:48:39 435.120 FM
PCSat 23 Oct 05:49:09 05:53:48 29° 311° (NW) 05:58:29 145.825 MHz
JAS-2 23 Oct 06:00:36 06:08:06 50° 98° (E) 06:15:37 435.800 - 435.900 CW/SSB, 435.910 FM
AO-7 23 Oct 06:19:06 06:27:07 55° 295° (WNW) 06:35:09 29.400 - 29.500 MHz
OPAL 23 Oct 06:19:49 06:23:49 23° 264° (W) 06:27:48 ?
STRAND 1 23 Oct 06:21:16 06:26:02 41° 69° (ENE) 06:30:50 ?
Hamsat 23 Oct 06:29:56 06:34:01 49° 99° (E) 06:38:05 145.90 MHz
RS-15 23 Oct 06:49:10 06:59:57 52° 47° (NE) 07:11:07 29.354 - 29.394 USB, Beacon 29.352 USB
Uosat F 23 Oct 07:20:25 07:21:34 11° 302° (WNW) 07:22:44 435.120 FM
Saudisat 1A 23 Oct 07:27:22 07:30:48 23° 112° (ESE) 07:34:16 436.775 MHz
SO-67 23 Oct 07:29:00 07:31:58 26° 96° (E) 07:34:54 435.3500 MHz FM
JAS-2 23 Oct 07:45:56 07:52:50 38° 295° (WNW) 07:59:51 435.800 - 435.900 CW/SSB, 435.910 FM
STRAND 1 23 Oct 08:01:15 08:05:20 24° 266° (W) 08:09:28 ?
Hamsat 23 Oct 08:07:15 08:09:33 15° 295° (WNW) 08:11:52 145.90 MHz
